Location: Gdynia
(54.5000°N, 18.5333°E)
Time: 23:41:00
(UTC+01:00)

ISS - Visible Passes

Search period start: 21 January 2018 00:00
Search period end: 31 January 2018 00:00
Orbit: 402 x 407 km, 51.6° (Epoch: 22 January)

Date Brightness Start Highest point End Pass type
(mag) Time Alt. Az. Time Alt. Az. Time Alt. Az.
27 Jan -1.4 18:05:21 10° SSE 18:06:25 12° SSE 18:06:25 12° SSE visible
28 Jan -1.8 18:47:30 10° SW 18:49:02 20° SSW 18:49:02 20° SSW visible
29 Jan -2.1 17:55:40 10° SSW 17:58:07 20° SSE 17:58:54 18° SE visible
29 Jan -0.8 19:30:58 10° WSW 19:31:34 14° WSW 19:31:34 14° WSW visible
30 Jan -1.5 17:04:11 10° S 17:05:58 14° SE 17:07:45 10° ESE visible
30 Jan -2.8 18:38:45 10° SW 18:41:23 35° S 18:41:23 35° S visible
